Погода в Баклани

Россия / Брянская область     52°44′20″N   33°15′26″E
темп.,
°C
ветер,
м/с
пор.,
м/с
влажн.,
%
обл.,
%
осадки,
мм/ч
давл.,
гПа
погр.,
м
13 мая, чт
чт1300:00+7в239082 0.9 101444
03:00+7вюв379589 0.9 1013234
06:00+6в3997100 0.1 1012311
09:00+8вюв379645 2.7 1012500
12:00+11ююв5775100 1.2 10121266
15:00+14ю576789 2.6 10111561
18:00+13ю4874100 0.2 1012762
21:00+9ююв4991100 0.2 1013164
14 мая, пт
пт1400:00+8юв489150 0.0 1013154
03:00+8вюв499386 0.0 1013162
06:00+8вюв3989100 0.0 1012185
09:00+14юв5972100 0.0 1012400
12:00+19вюв696397 0.0 10101127
15:00+20юв576650 0.4 10081375
18:00+18ююв4783100 1.8 1006316
21:00+14ююв41191100 4.7 1006209
15 мая, сб
сб1500:00+12ю36945 0.0 1006106
03:00+11ююв37951 0.0 1007140
06:00+10ю51098100 0.0 1007445
09:00+12ю61095100 0.1 1008664
12:00+13ююз5996100 0.8 1010624
15:00+17юз787792 1.7 1010995
18:00+17ю577992 0.3 1010855
21:00+12ю47925 0.7 1011123
16 мая, вс
вс1600:00+10ю36945 0.0 1012111
03:00+10ю36965 0.0 1013108
06:00+10ююз36976 0.0 1014141
09:00+15ююз34827 0.0 1014483
12:00+19ююз336615 0.0 10141204
15:00+21ю345723 0.1 10141629
18:00+21ююв346614 0.0 1013825
21:00+16вюв2275100 0.1 101311
17 мая, пн
пн1700:00+14в338429 0.0 101332
03:00+13в3487100 0.0 101269
06:00+13в3889100 0.0 1011156
09:00+18в4779100 0.0 1010340
12:00+23вюв4664100 0.0 1008938
15:00+25юв5962100 0.0 10061411
18:00+23ююв5107198 0.1 1005550
21:00+17вюв4988100 1.2 1005165